Worcester, MA

11:46 AM EST on November 20, 2019 (GMT -0500)
Worcester Regional

Weather History for KORH - August, 2019

Change the Weather History Date:

Saturday, August 17, 2019

  Actual Average Record
Temperature  
Mean Temperature 71 °F 69 °F  
Max Temperature 78 °F 77 °F 97 °F (1944)
Min Temperature 64 °F 61 °F 44 °F (1929)
Degree Days  
Heating Degree Days 0 1  
Month to date heating degree days 0 8  
Since 1 June heating degree days 52 105  
Since 1 July heating degree days 1 22  
Cooling Degree Days 6 5  
Month to date cooling degree days 94 91  
Year to date cooling degree days 450 372  
Since 1 June cooling degree days 441 350  
Growing Degree Days 21 (Base 50)    
Moisture  
Dew Point 67 °F    
Average Humidity 88    
Maximum Humidity 100    
Minimum Humidity 76    
Precipitation  
Precipitation 0.10 in 0.12 in 1.60 in (1939)
Month to date precipitation 1.94 2.18  
Year to date precipitation 33.46 29.83  
Sea Level Pressure  
Sea Level Pressure 30.06 in    
Wind  
Wind Speed 6 mph (SSE)    
Max Wind Speed 15 mph    
Max Gust Speed 19 mph    
Visibility 8 miles    
Events Fog , Rain , Thunderstorm    
T = Trace of Precipitation, MM = Missing Value Source: NWS Daily Summary

Daily Weather History Graph

Daily Weather History Graph

Search for Another Location

Airport or City:

Astronomy

Aug. 17, 2019 Rise Set
Actual Time 5:56 AM EDT 7:45 PM EDT
Civil Twilight 5:26 AM EDT 8:15 PM EDT
Nautical Twilight 4:49 AM EDT 8:52 PM EDT
Astronomical Twilight 4:10 AM EDT 9:31 PM EDT
Moon 9:10 PM EDT (8/17) 7:43 AM EDT (8/17)
Length of Visible Light 14h 49m
Length of Day
13h 49m
Waning Gibbous, 96% of the Moon is Illuminated
Aug 17
Waning Gibbous
Aug 23
Last Quarter
Aug 30
New
Sep 5
First Quarter
Sep 14
Full

Hourly Weather History & Observations

Time (EDT) Temp. Dew Point Humidity Pressure Visibility Wind Dir Wind Speed Gust Speed Precip Events Conditions
12:21 AM 64.0 °F 63.0 °F 96% 30.10 in 10.0 mi South 6.9 mph - N/A   Mostly Cloudy
12:54 AM 64.0 °F 63.0 °F 96% 30.08 in 10.0 mi South 6.9 mph - N/A   Mostly Cloudy
1:06 AM 64.4 °F 62.6 °F 94% 30.09 in 10.0 mi South 5.8 mph - N/A   Partly Cloudy
1:21 AM 64.9 °F 63.0 °F 93% 30.09 in 10.0 mi South 5.8 mph - N/A   Mostly Cloudy
1:54 AM 64.9 °F 63.0 °F 93% 30.08 in 10.0 mi South 5.8 mph - N/A   Overcast
2:54 AM 64.9 °F 64.0 °F 97% 30.09 in 10.0 mi SSW 3.5 mph - N/A   Overcast
3:54 AM 64.9 °F 64.9 °F 100% 30.08 in 4.0 mi SSW 5.8 mph - N/A   Overcast
4:05 AM 64.9 °F 64.9 °F 100% 30.09 in 1.8 mi SSW 4.6 mph - N/A   Overcast
4:54 AM 64.0 °F 64.0 °F 100% 30.08 in 1.5 mi South 3.5 mph - N/A   Overcast
5:19 AM 64.9 °F 64.9 °F 100% 30.08 in 0.8 mi SSW 4.6 mph - N/A   Mist
5:54 AM 64.9 °F 64.9 °F 100% 30.08 in 0.8 mi South 3.5 mph - N/A   Mist
6:01 AM 64.4 °F 64.4 °F 100% 30.09 in 0.5 mi SSE 5.8 mph - N/A Fog Fog
6:11 AM 64.9 °F 64.9 °F 100% 30.09 in 0.2 mi South 5.8 mph - N/A Fog Fog
6:40 AM 64.9 °F 64.9 °F 100% 30.09 in 0.5 mi South 4.6 mph - N/A Fog Fog
6:54 AM 64.9 °F 64.9 °F 100% 30.08 in 1.0 mi South 4.6 mph - N/A   Mist
7:27 AM 64.9 °F 64.9 °F 100% 30.09 in 3.0 mi South 5.8 mph - N/A   Overcast
7:54 AM 64.9 °F 64.9 °F 100% 30.08 in 10.0 mi South 4.6 mph - N/A   Overcast
8:46 AM 66.9 °F 66.0 °F 97% 30.09 in 10.0 mi Calm Calm - N/A   Overcast
8:54 AM 66.9 °F 66.0 °F 97% 30.08 in 10.0 mi South 4.6 mph - N/A   Overcast
9:54 AM 69.1 °F 66.0 °F 90% 30.09 in 10.0 mi South 4.6 mph - N/A   Overcast
10:54 AM 70.0 °F 66.9 °F 90% 30.09 in 10.0 mi South 4.6 mph - N/A   Overcast
11:51 AM 73.4 °F 68.0 °F 83% 30.09 in 10.0 mi SSW 6.9 mph - N/A   Overcast
11:54 AM 72.0 °F 66.9 °F 84% 30.08 in 10.0 mi South 6.9 mph - N/A   Overcast
12:54 PM 73.0 °F 68.0 °F 84% 30.08 in 10.0 mi South 4.6 mph - N/A   Overcast
1:13 PM 73.9 °F 68.0 °F 82% 30.09 in 10.0 mi SSW 5.8 mph - N/A   Overcast
1:30 PM 75.0 °F 70.0 °F 84% 30.08 in 10.0 mi SE 4.6 mph - N/A   Mostly Cloudy
1:54 PM 75.9 °F 69.1 °F 79% 30.07 in 10.0 mi ESE 5.8 mph - N/A   Mostly Cloudy
2:54 PM 75.9 °F 69.1 °F 79% 30.06 in 10.0 mi SE 6.9 mph - N/A   Overcast
3:11 PM 77.0 °F 69.1 °F 76% 30.06 in 10.0 mi ESE 11.5 mph - N/A   Overcast
3:54 PM 77.0 °F 69.1 °F 76% 30.03 in 10.0 mi South 12.7 mph - N/A   Overcast
4:11 PM 78.1 °F 70.0 °F 76% 30.03 in 10.0 mi SSE 15.0 mph - N/A   Mostly Cloudy
4:19 PM 77.0 °F 70.0 °F 79% 30.03 in 10.0 mi SSE 13.8 mph - N/A   Mostly Cloudy
4:33 PM 77.0 °F 70.0 °F 79% 30.03 in 10.0 mi South 12.7 mph - N/A   Scattered Clouds
4:54 PM 75.9 °F 69.1 °F 79% 30.02 in 10.0 mi South 11.5 mph - N/A   Scattered Clouds
5:42 PM 77.0 °F 70.0 °F 79% 30.00 in 10.0 mi South 12.7 mph - N/A   Mostly Cloudy
5:54 PM 75.9 °F 69.1 °F 79% 29.99 in 10.0 mi SE 11.5 mph - N/A   Mostly Cloudy
6:09 PM 75.0 °F 69.1 °F 82% 30.00 in 10.0 mi SSE 11.5 mph - N/A   Mostly Cloudy
6:51 PM 75.2 °F 69.8 °F 83% 30.02 in 10.0 mi South 6.9 mph - N/A   Mostly Cloudy
6:54 PM 75.0 °F 70.0 °F 84% 30.01 in 10.0 mi South 8.1 mph - N/A   Mostly Cloudy
7:54 PM 73.0 °F 69.1 °F 87% 30.00 in 10.0 mi South 8.1 mph - N/A   Scattered Clouds
8:54 PM 72.0 °F 70.0 °F 93% 30.03 in 10.0 mi South 5.8 mph - N/A   Clear
9:04 PM 72.0 °F 70.0 °F 93% 30.04 in 10.0 mi South 4.6 mph - N/A   Scattered Clouds
9:13 PM 72.0 °F 70.0 °F 93% 30.04 in 10.0 mi SSE 6.9 mph - N/A   Mostly Cloudy
9:54 PM 72.0 °F 70.0 °F 93% 30.03 in 10.0 mi SSE 6.9 mph - N/A   Overcast
10:28 PM 72.0 °F 71.1 °F 97% 30.05 in 10.0 mi WSW 5.8 mph - 0.00 in Thunderstorm Overcast
10:42 PM 72.0 °F 68.0 °F 87% 30.04 in 10.0 mi North 6.9 mph - 0.00 in Rain Light Rain
10:51 PM 71.6 °F 66.2 °F 83% 30.04 in 8.0 mi East 4.6 mph - 0.02 in Rain Rain
10:54 PM 71.1 °F 66.9 °F 87% 30.03 in 8.0 mi SE 8.1 mph - 0.02 in Rain Light Rain
11:08 PM 70.0 °F 66.9 °F 90% 30.02 in 4.0 mi SE 10.4 mph - 0.05 in Rain Rain
11:17 PM 70.0 °F 66.9 °F 90% 30.02 in 9.0 mi East 5.8 mph - 0.06 in Rain Light Rain
11:34 PM 71.1 °F 71.1 °F 100% 30.04 in 9.0 mi South 5.8 mph - 0.06 in   Overcast
11:54 PM 71.1 °F 71.1 °F 100% 30.03 in 7.0 mi South 6.9 mph - 0.06 in   Overcast